Location: Allentsteig
(48.6833°N, 15.3167°E)
Time: 06:24:07
(UTC+00:00)

Cosmos 2278 Rocket - Pass Details

Date: 18 September 2020
Orbit: 841 x 845 km, 71.0° (Epoch: 23 October)

Event Time Altitude Azimuth Distance (km) Brightness Sun altitude
Exits shadow 21:22:29 26° 17° (NNE) 1,609 3.9 -36.2°
Drops below altitude 10° 21:24:54 10° 24° (NNE) 2,471 5.0 -36.4°
Sets 21:27:23 0° 27° (NNE) 3,409 5.8 -36.6°
